Time,TemperatureF,DewpointF,PressureIn,WindDirection,WindDirectionDegrees,WindSpeedMPH,WindSpeedGustMPH,Humidity,HourlyPrecipIn,Conditions,Clouds,dailyrainin,SoftwareType,DateUTC
2013-08-25 00:01:00,58.2,52.4,30.14,WNW,300,0.0,0.0,81,0.00,,,0.00,WeatherCatV1.11B39,2013-08-25 04:01:00,
2013-08-25 00:02:00,58.1,52.3,30.14,WNW,300,0.0,0.0,81,0.00,,,0.00,WeatherCatV1.11B39,2013-08-25 04:02:00,
2013-08-25 00:07:00,58.1,52.3,30.15,WNW,300,0.0,0.0,81,0.00,,,0.00,WeatherCatV1.11B39,2013-08-25 04:07:00,
2013-08-25 00:12:00,58.1,52.6,30.14,WNW,300,0.0,0.0,82,0.00,,,0.00,WeatherCatV1.11B39,2013-08-25 04:12:00,
2013-08-25 00:17:00,58.2,52.7,30.14,WNW,300,0.0,0.0,82,0.00,,,0.00,WeatherCatV1.11B39,2013-08-25 04:17:00,
2013-08-25 00:22:00,58.4,53.6,30.15,WNW,300,0.0,0.0,84,0.00,,,0.00,WeatherCatV1.11B39,2013-08-25 04:22:00,
2013-08-25 00:27:00,59.0,54.2,30.14,WNW,299,0.0,0.0,84,0.00,,,0.00,WeatherCatV1.11B39,2013-08-25 04:27:00,
2013-08-25 00:32:00,59.5,54.0,30.14,WNW,299,0.0,0.0,82,0.00,,,0.00,WeatherCatV1.11B39,2013-08-25 04:32:00,
2013-08-25 00:37:00,59.8,54.0,30.14,WNW,299,0.0,0.0,81,0.00,,,0.00,WeatherCatV1.11B39,2013-08-25 04:37:00,
2013-08-25 00:42:00,60.1,53.9,30.14,WNW,299,0.0,2.0,80,0.00,,,0.00,WeatherCatV1.11B39,2013-08-25 04:42:00,
2013-08-25 00:47:00,60.2,53.7,30.14,WNW,299,0.0,0.0,79,0.00,,,0.00,WeatherCatV1.11B39,2013-08-25 04:47:00,
2013-08-25 00:52:00,60.1,53.6,30.14,WNW,299,0.0,0.0,79,0.00,,,0.00,WeatherCatV1.11B39,2013-08-25 04:52:00,
2013-08-25 00:57:00,59.8,53.3,30.14,WNW,299,0.0,0.0,79,0.00,,,0.00,WeatherCatV1.11B39,2013-08-25 04:57:00,
2013-08-25 01:02:00,59.6,52.7,30.13,WNW,299,0.0,0.0,78,0.00,,,0.00,WeatherCatV1.11B39,2013-08-25 05:02:00,
2013-08-25 01:07:00,59.2,52.3,30.13,WNW,299,0.0,0.0,78,0.00,,,0.00,WeatherCatV1.11B39,2013-08-25 05:07:00,
2013-08-25 01:12:00,58.9,52.0,30.13,WNW,299,0.0,0.0,78,0.00,,,0.00,WeatherCatV1.11B39,2013-08-25 05:12:00,
2013-08-25 01:17:00,58.7,52.2,30.13,WNW,299,0.0,0.0,79,0.00,,,0.00,WeatherCatV1.11B39,2013-08-25 05:17:00,
2013-08-25 01:22:00,58.5,52.0,30.13,WNW,299,0.0,0.0,79,0.00,,,0.00,WeatherCatV1.11B39,2013-08-25 05:22:00,
2013-08-25 01:27:00,58.5,52.3,30.13,North,0,0.0,0.0,80,0.00,,,0.00,WeatherCatV1.11B39,2013-08-25 05:27:00,
2013-08-25 01:32:00,58.5,52.3,30.13,North,0,0.0,0.0,80,0.00,,,0.00,WeatherCatV1.11B39,2013-08-25 05:32:00,
2013-08-25 01:37:00,58.5,52.3,30.13,North,0,0.0,0.0,80,0.00,,,0.00,WeatherCatV1.11B39,2013-08-25 05:37:00,
2013-08-25 01:42:00,58.4,52.3,30.12,North,0,0.0,0.0,80,0.00,,,0.00,WeatherCatV1.11B39,2013-08-25 05:42:00,
2013-08-25 01:47:00,58.2,52.1,30.12,North,0,0.0,0.0,80,0.00,,,0.00,WeatherCatV1.11B39,2013-08-25 05:47:00,
2013-08-25 01:52:00,58.2,52.4,30.13,North,0,0.0,0.0,81,0.00,,,0.00,WeatherCatV1.11B39,2013-08-25 05:52:00,
2013-08-25 01:57:00,58.2,52.7,30.12,North,0,0.0,0.0,82,0.00,,,0.00,WeatherCatV1.11B39,2013-08-25 05:57:00,
2013-08-25 02:02:00,58.2,52.4,30.12,North,0,0.0,0.0,81,0.00,,,0.00,WeatherCatV1.11B39,2013-08-25 06:02:00,
2013-08-25 02:07:00,58.2,52.7,30.12,North,0,0.0,0.0,82,0.00,,,0.00,WeatherCatV1.11B39,2013-08-25 06:07:00,
2013-08-25 02:12:00,58.4,52.9,30.12,North,350,0.0,0.0,82,0.00,,,0.00,WeatherCatV1.11B39,2013-08-25 06:12:00,
2013-08-25 02:17:00,58.5,53.0,30.12,North,350,0.0,0.0,82,0.00,,,0.00,WeatherCatV1.11B39,2013-08-25 06:17:00,
2013-08-25 02:22:00,58.7,53.2,30.12,North,350,0.0,0.0,82,0.00,,,0.00,WeatherCatV1.11B39,2013-08-25 06:22:00,
2013-08-25 02:27:00,58.7,53.2,30.12,North,350,0.0,0.0,82,0.00,,,0.00,WeatherCatV1.11B39,2013-08-25 06:27:00,
2013-08-25 02:32:00,58.7,53.2,30.12,North,350,0.0,0.0,82,0.00,,,0.00,WeatherCatV1.11B39,2013-08-25 06:32:00,
2013-08-25 02:37:00,58.5,52.7,30.12,North,350,0.0,0.0,81,0.00,,,0.00,WeatherCatV1.11B39,2013-08-25 06:37:00,
2013-08-25 02:42:00,58.7,53.2,30.11,North,350,0.0,0.0,82,0.00,,,0.00,WeatherCatV1.11B39,2013-08-25 06:42:00,
2013-08-25 02:47:00,58.8,53.0,30.12,North,350,0.0,0.0,81,0.00,,,0.00,WeatherCatV1.11B39,2013-08-25 06:47:00,
2013-08-25 02:52:00,58.8,53.0,30.12,North,350,0.0,0.0,81,0.00,,,0.00,WeatherCatV1.11B39,2013-08-25 06:52:00,
2013-08-25 02:57:00,58.9,53.1,30.12,North,350,0.0,0.0,81,0.00,,,0.00,WeatherCatV1.11B39,2013-08-25 06:57:00,
2013-08-25 03:02:00,58.8,53.3,30.12,North,350,0.0,0.0,82,0.00,,,0.00,WeatherCatV1.11B39,2013-08-25 07:02:00,
2013-08-25 03:07:00,58.9,53.4,30.12,North,350,0.0,0.0,82,0.00,,,0.00,WeatherCatV1.11B39,2013-08-25 07:07:00,
2013-08-25 03:12:00,58.7,52.9,30.12,North,350,0.0,0.0,81,0.00,,,0.00,WeatherCatV1.11B39,2013-08-25 07:12:00,
2013-08-25 03:17:00,58.7,52.9,30.12,North,350,0.0,0.0,81,0.00,,,0.00,WeatherCatV1.11B39,2013-08-25 07:17:00,
2013-08-25 03:22:00,58.7,52.9,30.12,NW,318,0.0,0.0,81,0.00,,,0.00,WeatherCatV1.11B39,2013-08-25 07:22:00,
2013-08-25 03:27:00,58.7,52.9,30.11,NW,318,0.0,0.0,81,0.00,,,0.00,WeatherCatV1.11B39,2013-08-25 07:27:00,
2013-08-25 03:32:00,58.7,52.9,30.12,NW,318,0.0,0.0,81,0.00,,,0.00,WeatherCatV1.11B39,2013-08-25 07:32:00,
2013-08-25 03:37:00,58.7,52.5,30.12,NW,318,0.0,0.0,80,0.00,,,0.00,WeatherCatV1.11B39,2013-08-25 07:37:00,
2013-08-25 03:42:00,58.7,52.9,30.12,NW,318,0.0,0.0,81,0.00,,,0.00,WeatherCatV1.11B39,2013-08-25 07:42:00,
2013-08-25 03:47:00,58.9,53.1,30.12,NW,318,0.0,0.0,81,0.00,,,0.00,WeatherCatV1.11B39,2013-08-25 07:47:00,
2013-08-25 03:52:00,58.8,53.0,30.12,NW,318,0.0,0.0,81,0.00,,,0.00,WeatherCatV1.11B39,2013-08-25 07:52:00,
2013-08-25 03:57:00,58.7,52.9,30.12,NW,312,0.0,0.0,81,0.00,,,0.00,WeatherCatV1.11B39,2013-08-25 07:57:00,
2013-08-25 04:02:00,58.9,53.1,30.12,NW,311,0.0,0.0,81,0.00,,,0.00,WeatherCatV1.11B39,2013-08-25 08:02:00,
2013-08-25 04:07:00,58.8,53.3,30.12,NW,311,0.0,0.0,82,0.00,,,0.00,WeatherCatV1.11B39,2013-08-25 08:07:00,
2013-08-25 04:12:00,59.0,53.5,30.12,NW,311,0.0,0.0,82,0.00,,,0.00,WeatherCatV1.11B39,2013-08-25 08:12:00,
2013-08-25 04:17:00,59.2,53.7,30.12,NW,304,2.0,4.0,82,0.00,,,0.00,WeatherCatV1.11B39,2013-08-25 08:17:00,
2013-08-25 04:22:00,59.4,53.9,30.13,WNW,298,2.0,4.0,82,0.00,,,0.00,WeatherCatV1.11B39,2013-08-25 08:22:00,
2013-08-25 04:27:00,59.5,53.7,30.13,WNW,297,1.0,5.0,81,0.00,,,0.00,WeatherCatV1.11B39,2013-08-25 08:27:00,
2013-08-25 04:32:00,59.6,53.8,30.13,WNW,297,2.0,4.0,81,0.00,,,0.00,WeatherCatV1.11B39,2013-08-25 08:32:00,
2013-08-25 04:37:00,59.6,53.8,30.13,WNW,284,2.0,4.0,81,0.00,,,0.00,WeatherCatV1.11B39,2013-08-25 08:37:00,
2013-08-25 04:42:00,59.6,53.4,30.13,WNW,291,2.0,4.0,80,0.00,,,0.00,WeatherCatV1.11B39,2013-08-25 08:42:00,
2013-08-25 04:47:00,59.6,53.4,30.13,WNW,291,1.0,3.0,80,0.00,,,0.00,WeatherCatV1.11B39,2013-08-25 08:47:00,
2013-08-25 04:52:00,59.6,53.8,30.13,WNW,290,0.0,0.0,81,0.00,,,0.00,WeatherCatV1.11B39,2013-08-25 08:52:00,
2013-08-25 04:57:00,59.6,54.1,30.13,WNW,290,0.0,0.0,82,0.00,,,0.00,WeatherCatV1.11B39,2013-08-25 08:57:00,
2013-08-25 05:02:00,59.6,54.1,30.13,WNW,290,0.0,0.0,82,0.00,,,0.00,WeatherCatV1.11B39,2013-08-25 09:02:00,
2013-08-25 05:07:00,59.5,53.7,30.13,WNW,290,0.0,0.0,81,0.00,,,0.00,WeatherCatV1.11B39,2013-08-25 09:07:00,
2013-08-25 05:12:00,59.3,53.1,30.14,WNW,290,0.0,0.0,80,0.00,,,0.00,WeatherCatV1.11B39,2013-08-25 09:12:00,
2013-08-25 05:17:00,58.9,52.7,30.14,WNW,290,0.0,0.0,80,0.00,,,0.00,WeatherCatV1.11B39,2013-08-25 09:17:00,
2013-08-25 05:22:00,58.5,52.7,30.14,WNW,290,0.0,0.0,81,0.00,,,0.00,WeatherCatV1.11B39,2013-08-25 09:22:00,
2013-08-25 05:27:00,58.2,52.4,30.14,WNW,290,0.0,0.0,81,0.00,,,0.00,WeatherCatV1.11B39,2013-08-25 09:27:00,
2013-08-25 05:32:00,57.9,52.1,30.15,WNW,290,0.0,0.0,81,0.00,,,0.00,WeatherCatV1.11B39,2013-08-25 09:32:00,
2013-08-25 05:37:00,57.7,51.9,30.15,WNW,290,0.0,0.0,81,0.00,,,0.00,WeatherCatV1.11B39,2013-08-25 09:37:00,
2013-08-25 05:42:00,57.6,52.1,30.15,WNW,290,0.0,0.0,82,0.00,,,0.00,WeatherCatV1.11B39,2013-08-25 09:42:00,
2013-08-25 05:47:00,57.5,52.0,30.15,WNW,290,0.0,0.0,82,0.00,,,0.00,WeatherCatV1.11B39,2013-08-25 09:47:00,
2013-08-25 05:52:00,57.3,52.2,30.15,WNW,290,0.0,0.0,83,0.00,,,0.00,WeatherCatV1.11B39,2013-08-25 09:52:00,
2013-08-25 05:57:00,57.4,52.3,30.15,WNW,290,0.0,0.0,83,0.00,,,0.00,WeatherCatV1.11B39,2013-08-25 09:57:00,
2013-08-25 06:02:00,57.5,52.7,30.16,WNW,290,0.0,0.0,84,0.00,,,0.00,WeatherCatV1.11B39,2013-08-25 10:02:00,
2013-08-25 06:07:00,57.5,52.7,30.16,WNW,290,0.0,0.0,84,0.00,,,0.00,WeatherCatV1.11B39,2013-08-25 10:07:00,
2013-08-25 06:12:00,57.5,52.7,30.16,WNW,290,0.0,0.0,84,0.00,,,0.00,WeatherCatV1.11B39,2013-08-25 10:12:00,
2013-08-25 06:17:00,57.3,52.2,30.16,WNW,290,0.0,0.0,83,0.00,,,0.00,WeatherCatV1.11B39,2013-08-25 10:17:00,
2013-08-25 06:22:00,57.2,52.1,30.16,WNW,290,0.0,0.0,83,0.00,,,0.00,WeatherCatV1.11B39,2013-08-25 10:22:00,
2013-08-25 06:27:00,57.0,52.2,30.16,WNW,290,0.0,0.0,84,0.00,,,0.00,WeatherCatV1.11B39,2013-08-25 10:27:00,
2013-08-25 06:32:00,57.0,52.2,30.17,WNW,290,0.0,0.0,84,0.00,,,0.00,WeatherCatV1.11B39,2013-08-25 10:32:00,
2013-08-25 06:37:00,57.0,52.2,30.16,WNW,290,0.0,0.0,84,0.00,,,0.00,WeatherCatV1.11B39,2013-08-25 10:37:00,
2013-08-25 06:42:00,57.0,52.2,30.16,WNW,290,0.0,0.0,84,0.00,,,0.00,WeatherCatV1.11B39,2013-08-25 10:42:00,
2013-08-25 06:47:00,56.8,52.0,30.17,WNW,290,0.0,0.0,84,0.00,,,0.00,WeatherCatV1.11B39,2013-08-25 10:47:00,
2013-08-25 06:52:00,56.7,52.2,30.16,WNW,290,0.0,0.0,85,0.00,,,0.00,WeatherCatV1.11B39,2013-08-25 10:52:00,
2013-08-25 06:57:00,56.9,52.8,30.17,WNW,290,0.0,0.0,86,0.00,,,0.00,WeatherCatV1.11B39,2013-08-25 10:57:00,
2013-08-25 07:02:00,57.2,53.0,30.17,WNW,290,0.0,0.0,86,0.00,,,0.00,WeatherCatV1.11B39,2013-08-25 11:02:00,
2013-08-25 07:07:00,57.3,53.1,30.17,WNW,290,0.0,0.0,86,0.00,,,0.00,WeatherCatV1.11B39,2013-08-25 11:07:00,
2013-08-25 07:12:00,57.5,53.3,30.17,WNW,290,0.0,0.0,86,0.00,,,0.00,WeatherCatV1.11B39,2013-08-25 11:12:00,
2013-08-25 07:17:00,57.5,53.3,30.17,WNW,290,0.0,0.0,86,0.00,,,0.00,WeatherCatV1.11B39,2013-08-25 11:17:00,
2013-08-25 07:22:00,57.4,53.6,30.17,WNW,290,0.0,0.0,87,0.00,,,0.00,WeatherCatV1.11B39,2013-08-25 11:22:00,
2013-08-25 07:27:00,57.6,53.8,30.18,WNW,290,0.0,0.0,87,0.00,,,0.00,WeatherCatV1.11B39,2013-08-25 11:27:00,
2013-08-25 07:32:00,57.6,54.4,30.17,WNW,290,0.0,0.0,89,0.00,,,0.00,WeatherCatV1.11B39,2013-08-25 11:32:00,
2013-08-25 07:37:00,57.8,54.3,30.17,WNW,290,0.0,0.0,88,0.00,,,0.00,WeatherCatV1.11B39,2013-08-25 11:37:00,
2013-08-25 07:42:00,57.9,54.4,30.17,WNW,290,0.0,0.0,88,0.00,,,0.00,WeatherCatV1.11B39,2013-08-25 11:42:00,
2013-08-25 07:47:00,58.2,54.7,30.17,WNW,290,0.0,0.0,88,0.00,,,0.00,WeatherCatV1.11B39,2013-08-25 11:47:00,
2013-08-25 07:52:00,58.7,55.2,30.17,WNW,290,0.0,0.0,88,0.00,,,0.00,WeatherCatV1.11B39,2013-08-25 11:52:00,
2013-08-25 07:57:00,59.2,56.0,30.17,WNW,290,0.0,0.0,89,0.00,,,0.00,WeatherCatV1.11B39,2013-08-25 11:57:00,
2013-08-25 08:02:00,59.4,55.8,30.17,WNW,290,0.0,0.0,88,0.00,,,0.00,WeatherCatV1.11B39,2013-08-25 12:02:00,
2013-08-25 08:07:00,59.8,56.2,30.17,WNW,290,0.0,0.0,88,0.00,,,0.00,WeatherCatV1.11B39,2013-08-25 12:07:00,
2013-08-25 08:12:00,60.1,56.2,30.17,WNW,290,0.0,0.0,87,0.00,,,0.00,WeatherCatV1.11B39,2013-08-25 12:12:00,
2013-08-25 08:17:00,60.4,56.5,30.17,WNW,290,0.0,0.0,87,0.00,,,0.00,WeatherCatV1.11B39,2013-08-25 12:17:00,
2013-08-25 08:22:00,60.7,56.5,30.17,WNW,290,0.0,0.0,86,0.00,,,0.00,WeatherCatV1.11B39,2013-08-25 12:22:00,
2013-08-25 08:27:00,61.2,56.7,30.17,WNW,290,0.0,0.0,85,0.00,,,0.00,WeatherCatV1.11B39,2013-08-25 12:27:00,
2013-08-25 08:32:00,61.8,56.6,30.17,WNW,291,0.0,3.0,83,0.00,,,0.00,WeatherCatV1.11B39,2013-08-25 12:32:00,
2013-08-25 08:37:00,62.7,56.8,30.17,WNW,290,0.0,0.0,81,0.00,,,0.00,WeatherCatV1.11B39,2013-08-25 12:37:00,
2013-08-25 08:42:00,63.5,56.5,30.17,WNW,290,0.0,0.0,78,0.00,,,0.00,WeatherCatV1.11B39,2013-08-25 12:42:00,
2013-08-25 08:47:00,64.2,56.8,30.17,WNW,290,0.0,0.0,77,0.00,,,0.00,WeatherCatV1.11B39,2013-08-25 12:47:00,
2013-08-25 08:52:00,64.7,56.6,30.17,WNW,290,0.0,0.0,75,0.00,,,0.00,WeatherCatV1.11B39,2013-08-25 12:52:00,
2013-08-25 08:57:00,65.3,56.4,30.17,WNW,290,0.0,0.0,73,0.00,,,0.00,WeatherCatV1.11B39,2013-08-25 12:57:00,
2013-08-25 09:02:00,66.0,56.3,30.17,WNW,290,0.0,0.0,71,0.00,,,0.00,WeatherCatV1.11B39,2013-08-25 13:02:00,
2013-08-25 09:07:00,66.6,56.1,30.17,WNW,290,0.0,0.0,69,0.00,,,0.00,WeatherCatV1.11B39,2013-08-25 13:07:00,
2013-08-25 09:12:00,67.3,56.0,30.18,WNW,290,0.0,0.0,67,0.00,,,0.00,WeatherCatV1.11B39,2013-08-25 13:12:00,
2013-08-25 09:17:00,67.9,55.7,30.17,WNW,290,0.0,0.0,65,0.00,,,0.00,WeatherCatV1.11B39,2013-08-25 13:17:00,
2013-08-25 09:22:00,68.6,55.5,30.17,WNW,288,0.0,0.0,63,0.00,,,0.00,WeatherCatV1.11B39,2013-08-25 13:22:00,
2013-08-25 09:27:00,69.1,55.1,30.17,West,278,0.0,0.0,61,0.00,,,0.00,WeatherCatV1.11B39,2013-08-25 13:27:00,
2013-08-25 09:32:00,69.4,55.8,30.17,West,278,0.0,0.0,62,0.00,,,0.00,WeatherCatV1.11B39,2013-08-25 13:32:00,
2013-08-25 09:37:00,69.7,55.2,30.17,WNW,285,0.0,0.0,60,0.00,,,0.00,WeatherCatV1.11B39,2013-08-25 13:37:00,
2013-08-25 09:42:00,70.1,55.1,30.16,WNW,284,0.0,0.0,59,0.00,,,0.00,WeatherCatV1.11B39,2013-08-25 13:42:00,
2013-08-25 09:47:00,70.3,55.3,30.17,WNW,284,0.0,0.0,59,0.00,,,0.00,WeatherCatV1.11B39,2013-08-25 13:47:00,
2013-08-25 09:52:00,70.7,55.7,30.18,WNW,284,0.0,0.0,59,0.00,,,0.00,WeatherCatV1.11B39,2013-08-25 13:52:00,
2013-08-25 09:57:00,71.1,56.5,30.17,WNW,284,0.0,0.0,60,0.00,,,0.00,WeatherCatV1.11B39,2013-08-25 13:57:00,
2013-08-25 10:02:00,71.6,56.5,30.17,WNW,284,0.0,0.0,59,0.00,,,0.00,WeatherCatV1.11B39,2013-08-25 14:02:00,
2013-08-25 10:07:00,72.1,56.5,30.17,WNW,283,0.0,0.0,58,0.00,,,0.00,WeatherCatV1.11B39,2013-08-25 14:07:00,
2013-08-25 10:12:00,72.4,55.8,30.17,WNW,283,0.0,0.0,56,0.00,,,0.00,WeatherCatV1.11B39,2013-08-25 14:12:00,
2013-08-25 10:17:00,73.0,57.3,30.17,WNW,294,0.0,0.0,58,0.00,,,0.00,WeatherCatV1.11B39,2013-08-25 14:17:00,
2013-08-25 10:22:00,73.5,57.3,30.16,WNW,297,0.0,0.0,57,0.00,,,0.00,WeatherCatV1.11B39,2013-08-25 14:22:00,
2013-08-25 10:27:00,73.8,58.1,30.17,WNW,297,0.0,0.0,58,0.00,,,0.00,WeatherCatV1.11B39,2013-08-25 14:27:00,
2013-08-25 10:32:00,74.3,58.1,30.16,WNW,296,0.0,0.0,57,0.00,,,0.00,WeatherCatV1.11B39,2013-08-25 14:32:00,
2013-08-25 10:37:00,74.4,57.2,30.16,NW,305,0.0,0.0,55,0.00,,,0.00,WeatherCatV1.11B39,2013-08-25 14:37:00,
2013-08-25 10:42:00,74.8,57.0,30.16,West,277,0.0,0.0,54,0.00,,,0.00,WeatherCatV1.11B39,2013-08-25 14:42:00,
2013-08-25 10:47:00,75.0,55.1,30.16,West,263,0.0,0.0,50,0.00,,,0.00,WeatherCatV1.11B39,2013-08-25 14:47:00,
2013-08-25 10:52:00,75.2,54.1,30.16,WNW,289,0.0,0.0,48,0.00,,,0.00,WeatherCatV1.11B39,2013-08-25 14:52:00,
2013-08-25 10:57:00,75.5,55.5,30.15,WNW,288,0.0,0.0,50,0.00,,,0.00,WeatherCatV1.11B39,2013-08-25 14:57:00,
2013-08-25 11:02:00,75.7,51.0,30.15,WNW,288,0.0,0.0,42,0.00,,,0.00,WeatherCatV1.11B39,2013-08-25 15:02:00,
2013-08-25 11:07:00,76.0,49.9,30.15,WNW,294,0.0,0.0,40,0.00,,,0.00,WeatherCatV1.11B39,2013-08-25 15:07:00,
2013-08-25 11:12:00,76.1,50.0,30.15,West,280,0.0,4.0,40,0.00,,,0.00,WeatherCatV1.11B39,2013-08-25 15:12:00,
2013-08-25 11:17:00,76.1,47.2,30.15,North,359,0.0,0.0,36,0.00,,,0.00,WeatherCatV1.11B39,2013-08-25 15:17:00,
2013-08-25 11:22:00,76.2,51.4,30.14,WNW,282,0.0,1.0,42,0.00,,,0.00,WeatherCatV1.11B39,2013-08-25 15:22:00,
2013-08-25 11:27:00,76.0,47.1,30.14,WSW,255,0.0,3.0,36,0.00,,,0.00,WeatherCatV1.11B39,2013-08-25 15:27:00,
2013-08-25 11:32:00,76.6,47.6,30.14,WNW,298,0.0,1.0,36,0.00,,,0.00,WeatherCatV1.11B39,2013-08-25 15:32:00,
2013-08-25 11:37:00,76.6,49.1,30.14,WSW,249,0.0,1.0,38,0.00,,,0.00,WeatherCatV1.11B39,2013-08-25 15:37:00,
2013-08-25 11:42:00,76.6,50.5,30.13,WSW,237,0.0,0.0,40,0.00,,,0.00,WeatherCatV1.11B39,2013-08-25 15:42:00,
2013-08-25 11:47:00,76.9,50.0,30.13,WNW,295,0.0,4.0,39,0.00,,,0.00,WeatherCatV1.11B39,2013-08-25 15:47:00,
2013-08-25 11:52:00,76.7,48.4,30.13,West,265,4.0,4.0,37,0.00,,,0.00,WeatherCatV1.11B39,2013-08-25 15:52:00,
2013-08-25 11:57:00,76.4,47.5,30.13,WSW,249,0.0,7.0,36,0.00,,,0.00,WeatherCatV1.11B39,2013-08-25 15:57:00,
2013-08-25 12:02:00,76.6,49.8,30.12,WNW,301,5.0,5.0,39,0.00,,,0.00,WeatherCatV1.11B39,2013-08-25 16:02:00,
2013-08-25 12:07:00,76.8,49.2,30.12,West,275,0.0,1.0,38,0.00,,,0.00,WeatherCatV1.11B39,2013-08-25 16:07:00,
2013-08-25 12:12:00,76.7,49.2,30.12,WSW,253,0.0,0.0,38,0.00,,,0.00,WeatherCatV1.11B39,2013-08-25 16:12:00,
2013-08-25 12:17:00,76.7,47.7,30.12,WSW,253,0.0,0.0,36,0.00,,,0.00,WeatherCatV1.11B39,2013-08-25 16:17:00,
2013-08-25 12:22:00,76.8,49.2,30.12,West,267,0.0,5.0,38,0.00,,,0.00,WeatherCatV1.11B39,2013-08-25 16:22:00,
2013-08-25 12:27:00,76.9,52.7,30.12,West,268,0.0,0.0,43,0.00,,,0.00,WeatherCatV1.11B39,2013-08-25 16:27:00,
2013-08-25 12:32:00,77.5,50.6,30.12,WSW,249,0.0,0.0,39,0.00,,,0.00,WeatherCatV1.11B39,2013-08-25 16:32:00,
2013-08-25 12:38:00,78.0,53.0,30.11,WSW,249,0.0,0.0,42,0.00,,,0.00,WeatherCatV1.11B39,2013-08-25 16:38:00,
2013-08-25 12:43:00,77.8,50.8,30.11,WSW,257,4.0,6.0,39,0.00,,,0.00,WeatherCatV1.11B39,2013-08-25 16:43:00,
2013-08-25 12:48:00,77.1,50.2,30.11,WSW,252,0.0,3.0,39,0.00,,,0.00,WeatherCatV1.11B39,2013-08-25 16:48:00,
2013-08-25 12:53:00,77.1,51.6,30.11,WNW,292,2.0,5.0,41,0.00,,,0.00,WeatherCatV1.11B39,2013-08-25 16:53:00,
2013-08-25 12:58:00,77.3,48.2,30.11,WSW,254,0.0,0.0,36,0.00,,,0.00,WeatherCatV1.11B39,2013-08-25 16:58:00,
2013-08-25 13:03:00,77.3,49.7,30.10,West,261,3.0,6.0,38,0.00,,,0.00,WeatherCatV1.11B39,2013-08-25 17:03:00,
2013-08-25 13:08:00,77.5,51.9,30.11,WNW,292,0.0,5.0,41,0.00,,,0.00,WeatherCatV1.11B39,2013-08-25 17:08:00,
2013-08-25 13:13:00,77.6,50.0,30.11,West,270,7.0,7.0,38,0.00,,,0.00,WeatherCatV1.11B39,2013-08-25 17:13:00,
2013-08-25 13:18:00,77.3,49.0,30.10,WNW,296,0.0,6.0,37,0.00,,,0.00,WeatherCatV1.11B39,2013-08-25 17:18:00,
2013-08-25 13:23:00,77.4,51.8,30.10,WNW,291,0.0,3.0,41,0.00,,,0.00,WeatherCatV1.11B39,2013-08-25 17:23:00,
2013-08-25 13:28:00,77.4,48.3,30.11,NW,308,4.0,8.0,36,0.00,,,0.00,WeatherCatV1.11B39,2013-08-25 17:28:00,
2013-08-25 13:33:00,77.5,46.9,30.11,WSW,237,0.0,0.0,34,0.00,,,0.00,WeatherCatV1.11B39,2013-08-25 17:33:00,
2013-08-25 13:38:00,77.5,49.2,30.11,WNW,291,0.0,3.0,37,0.00,,,0.00,WeatherCatV1.11B39,2013-08-25 17:38:00,
2013-08-25 13:43:00,77.7,52.1,30.11,West,266,0.0,6.0,41,0.00,,,0.00,WeatherCatV1.11B39,2013-08-25 17:43:00,
2013-08-25 13:48:00,77.4,49.8,30.10,WNW,294,0.0,0.0,38,0.00,,,0.00,WeatherCatV1.11B39,2013-08-25 17:48:00,
2013-08-25 13:53:00,77.7,47.1,30.10,WSW,252,0.0,0.0,34,0.00,,,0.00,WeatherCatV1.11B39,2013-08-25 17:53:00,
2013-08-25 13:58:00,77.8,50.1,30.10,West,262,5.0,7.0,38,0.00,,,0.00,WeatherCatV1.11B39,2013-08-25 17:58:00,
2013-08-25 14:03:00,77.4,49.1,30.10,West,261,5.0,9.0,37,0.00,,,0.00,WeatherCatV1.11B39,2013-08-25 18:03:00,
2013-08-25 14:08:00,77.4,51.2,30.10,West,274,2.0,5.0,40,0.00,,,0.00,WeatherCatV1.11B39,2013-08-25 18:08:00,
2013-08-25 14:13:00,77.7,50.0,30.09,WNW,291,0.0,0.0,38,0.00,,,0.00,WeatherCatV1.11B39,2013-08-25 18:13:00,
2013-08-25 14:18:00,77.8,51.5,30.09,WSW,252,2.0,8.0,40,0.00,,,0.00,WeatherCatV1.11B39,2013-08-25 18:18:00,
2013-08-25 14:23:00,77.7,49.3,30.10,NW,321,3.0,7.0,37,0.00,,,0.00,WeatherCatV1.11B39,2013-08-25 18:23:00,
2013-08-25 14:28:00,77.5,49.9,30.09,NW,318,2.0,3.0,38,0.00,,,0.00,WeatherCatV1.11B39,2013-08-25 18:28:00,
2013-08-25 14:33:00,77.4,49.8,30.09,WSW,258,7.0,7.0,38,0.00,,,0.00,WeatherCatV1.11B39,2013-08-25 18:33:00,
2013-08-25 14:38:00,77.5,49.2,30.09,NW,325,3.0,5.0,37,0.00,,,0.00,WeatherCatV1.11B39,2013-08-25 18:38:00,
2013-08-25 14:43:00,77.6,50.7,30.09,NW,312,1.0,4.0,39,0.00,,,0.00,WeatherCatV1.11B39,2013-08-25 18:43:00,
2013-08-25 14:48:00,78.0,51.7,30.09,WNW,295,7.0,9.0,40,0.00,,,0.00,WeatherCatV1.11B39,2013-08-25 18:48:00,
2013-08-25 14:53:00,77.8,51.5,30.09,WNW,288,0.0,5.0,40,0.00,,,0.00,WeatherCatV1.11B39,2013-08-25 18:53:00,
2013-08-25 14:58:00,77.8,50.1,30.09,NW,319,4.0,8.0,38,0.00,,,0.00,WeatherCatV1.11B39,2013-08-25 18:58:00,
2013-08-25 15:03:00,77.8,51.5,30.08,WNW,294,5.0,7.0,40,0.00,,,0.00,WeatherCatV1.11B39,2013-08-25 19:03:00,
2013-08-25 15:08:00,78.0,47.3,30.08,WSW,252,4.0,5.0,34,0.00,,,0.00,WeatherCatV1.11B39,2013-08-25 19:08:00,
2013-08-25 15:13:00,78.2,50.5,30.08,NW,312,4.0,7.0,38,0.00,,,0.00,WeatherCatV1.11B39,2013-08-25 19:13:00,
2013-08-25 15:18:00,78.2,50.5,30.08,West,262,7.0,9.0,38,0.00,,,0.00,WeatherCatV1.11B39,2013-08-25 19:18:00,
2013-08-25 15:23:00,78.0,47.3,30.08,WSW,253,3.0,5.0,34,0.00,,,0.00,WeatherCatV1.11B39,2013-08-25 19:23:00,
2013-08-25 15:28:00,78.2,50.5,30.08,WSW,250,7.0,8.0,38,0.00,,,0.00,WeatherCatV1.11B39,2013-08-25 19:28:00,
2013-08-25 15:33:00,78.0,50.3,30.08,West,260,9.0,10.0,38,0.00,,,0.00,WeatherCatV1.11B39,2013-08-25 19:33:00,
2013-08-25 15:38:00,77.8,49.4,30.08,WSW,248,5.0,6.0,37,0.00,,,0.00,WeatherCatV1.11B39,2013-08-25 19:38:00,
2013-08-25 15:43:00,78.0,48.9,30.08,SW,236,2.0,6.0,36,0.00,,,0.00,WeatherCatV1.11B39,2013-08-25 19:43:00,
2013-08-25 15:48:00,78.0,47.3,30.07,WSW,256,4.0,6.0,34,0.00,,,0.00,WeatherCatV1.11B39,2013-08-25 19:48:00,
2013-08-25 15:53:00,78.0,48.9,30.07,NNW,333,3.0,7.0,36,0.00,,,0.00,WeatherCatV1.11B39,2013-08-25 19:53:00,
2013-08-25 15:58:00,78.0,48.9,30.07,WNW,288,0.0,6.0,36,0.00,,,0.00,WeatherCatV1.11B39,2013-08-25 19:58:00,
2013-08-25 16:03:00,78.0,48.9,30.07,WSW,254,5.0,9.0,36,0.00,,,0.00,WeatherCatV1.11B39,2013-08-25 20:03:00,
2013-08-25 16:08:00,77.8,47.9,30.07,WSW,250,2.0,9.0,35,0.00,,,0.00,WeatherCatV1.11B39,2013-08-25 20:08:00,
2013-08-25 16:13:00,77.6,48.5,30.07,WSW,244,4.0,8.0,36,0.00,,,0.00,WeatherCatV1.11B39,2013-08-25 20:13:00,
2013-08-25 16:18:00,77.6,50.0,30.07,WSW,257,5.0,7.0,38,0.00,,,0.00,WeatherCatV1.11B39,2013-08-25 20:18:00,
2013-08-25 16:23:00,77.8,50.8,30.06,West,260,2.0,7.0,39,0.00,,,0.00,WeatherCatV1.11B39,2013-08-25 20:23:00,
2013-08-25 16:28:00,77.8,51.5,30.06,WSW,250,6.0,7.0,40,0.00,,,0.00,WeatherCatV1.11B39,2013-08-25 20:28:00,
2013-08-25 16:33:00,77.6,51.3,30.07,WSW,252,6.0,7.0,40,0.00,,,0.00,WeatherCatV1.11B39,2013-08-25 20:33:00,
2013-08-25 16:38:00,77.4,51.8,30.06,WSW,237,2.0,7.0,41,0.00,,,0.00,WeatherCatV1.11B39,2013-08-25 20:38:00,
2013-08-25 16:43:00,77.4,53.8,30.06,WNW,283,6.0,7.0,44,0.00,,,0.00,WeatherCatV1.11B39,2013-08-25 20:43:00,
2013-08-25 16:48:00,77.3,52.4,30.06,NNW,330,4.0,10.0,42,0.00,,,0.00,WeatherCatV1.11B39,2013-08-25 20:48:00,
2013-08-25 16:53:00,77.3,54.3,30.06,West,273,4.0,7.0,45,0.00,,,0.00,WeatherCatV1.11B39,2013-08-25 20:53:00,
2013-08-25 16:58:00,77.3,53.7,30.06,WSW,252,7.0,7.0,44,0.00,,,0.00,WeatherCatV1.11B39,2013-08-25 20:58:00,
2013-08-25 17:03:00,77.3,52.4,30.06,West,260,5.0,12.0,42,0.00,,,0.00,WeatherCatV1.11B39,2013-08-25 21:03:00,
2013-08-25 17:08:00,77.1,54.1,30.05,WSW,250,4.0,6.0,45,0.00,,,0.00,WeatherCatV1.11B39,2013-08-25 21:08:00,
2013-08-25 17:13:00,77.1,53.5,30.05,WSW,251,2.0,7.0,44,0.00,,,0.00,WeatherCatV1.11B39,2013-08-25 21:13:00,
2013-08-25 17:18:00,77.1,54.7,30.05,NW,312,7.0,7.0,46,0.00,,,0.00,WeatherCatV1.11B39,2013-08-25 21:18:00,
2013-08-25 17:23:00,77.1,55.3,30.05,West,270,2.0,4.0,47,0.00,,,0.00,WeatherCatV1.11B39,2013-08-25 21:23:00,
2013-08-25 17:28:00,77.1,54.1,30.05,WSW,253,4.0,5.0,45,0.00,,,0.00,WeatherCatV1.11B39,2013-08-25 21:28:00,
2013-08-25 17:33:00,77.1,53.5,30.05,WSW,252,4.0,8.0,44,0.00,,,0.00,WeatherCatV1.11B39,2013-08-25 21:33:00,
2013-08-25 17:38:00,77.1,54.1,30.05,WSW,257,4.0,7.0,45,0.00,,,0.00,WeatherCatV1.11B39,2013-08-25 21:38:00,
2013-08-25 17:43:00,77.1,54.7,30.05,West,264,0.0,0.0,46,0.00,,,0.00,WeatherCatV1.11B39,2013-08-25 21:43:00,
2013-08-25 17:48:00,77.1,53.5,30.05,West,278,1.0,6.0,44,0.00,,,0.00,WeatherCatV1.11B39,2013-08-25 21:48:00,
2013-08-25 17:53:00,77.1,54.7,30.05,WSW,253,0.0,6.0,46,0.00,,,0.00,WeatherCatV1.11B39,2013-08-25 21:53:00,
2013-08-25 17:58:00,77.1,53.5,30.04,WSW,242,0.0,9.0,44,0.00,,,0.00,WeatherCatV1.11B39,2013-08-25 21:58:00,
2013-08-25 18:03:00,77.1,53.5,30.04,WSW,253,1.0,8.0,44,0.00,,,0.00,WeatherCatV1.11B39,2013-08-25 22:03:00,
2013-08-25 18:08:00,77.1,54.7,30.04,WSW,251,6.0,8.0,46,0.00,,,0.00,WeatherCatV1.11B39,2013-08-25 22:08:00,
2013-08-25 18:13:00,76.9,54.5,30.03,SW,227,2.0,5.0,46,0.00,,,0.00,WeatherCatV1.11B39,2013-08-25 22:13:00,
2013-08-25 18:18:00,76.7,54.3,30.03,WSW,248,5.0,8.0,46,0.00,,,0.00,WeatherCatV1.11B39,2013-08-25 22:18:00,
2013-08-25 18:23:00,76.6,54.8,30.03,WSW,249,3.0,6.0,47,0.00,,,0.00,WeatherCatV1.11B39,2013-08-25 22:23:00,
2013-08-25 18:28:00,76.6,54.8,30.03,WSW,249,2.0,5.0,47,0.00,,,0.00,WeatherCatV1.11B39,2013-08-25 22:28:00,
2013-08-25 18:33:00,76.4,55.2,30.02,SW,236,4.0,5.0,48,0.00,,,0.00,WeatherCatV1.11B39,2013-08-25 22:33:00,
2013-08-25 18:38:00,76.1,55.0,30.02,WSW,243,2.0,4.0,48,0.00,,,0.00,WeatherCatV1.11B39,2013-08-25 22:38:00,
2013-08-25 18:43:00,75.9,55.9,30.02,WSW,245,3.0,4.0,50,0.00,,,0.00,WeatherCatV1.11B39,2013-08-25 22:43:00,
2013-08-25 18:48:00,75.5,55.5,30.02,WSW,245,2.0,4.0,50,0.00,,,0.00,WeatherCatV1.11B39,2013-08-25 22:48:00,
2013-08-25 18:53:00,75.4,54.9,30.02,WSW,244,2.0,4.0,49,0.00,,,0.00,WeatherCatV1.11B39,2013-08-25 22:53:00,
2013-08-25 18:58:00,75.2,54.1,30.01,WSW,251,2.0,3.0,48,0.00,,,0.00,WeatherCatV1.11B39,2013-08-25 22:58:00,
2013-08-25 19:03:00,75.0,54.5,30.02,WSW,242,1.0,3.0,49,0.00,,,0.00,WeatherCatV1.11B39,2013-08-25 23:03:00,
2013-08-25 19:08:00,74.6,55.3,30.01,WSW,241,3.0,4.0,51,0.00,,,0.00,WeatherCatV1.11B39,2013-08-25 23:08:00,
2013-08-25 19:13:00,74.5,55.2,30.01,WSW,241,1.0,4.0,51,0.00,,,0.00,WeatherCatV1.11B39,2013-08-25 23:13:00,
2013-08-25 19:18:00,74.1,54.3,30.01,WSW,241,0.0,0.0,50,0.00,,,0.00,WeatherCatV1.11B39,2013-08-25 23:18:00,
2013-08-25 19:23:00,74.0,54.2,30.01,WSW,241,3.0,4.0,50,0.00,,,0.00,WeatherCatV1.11B39,2013-08-25 23:23:00,
2013-08-25 19:28:00,73.8,54.5,30.01,WSW,241,0.0,0.0,51,0.00,,,0.00,WeatherCatV1.11B39,2013-08-25 23:28:00,
2013-08-25 19:33:00,73.6,54.3,30.01,WSW,241,0.0,0.0,51,0.00,,,0.00,WeatherCatV1.11B39,2013-08-25 23:33:00,
2013-08-25 19:38:00,73.3,58.1,30.01,WSW,241,0.0,0.0,59,0.00,,,0.00,WeatherCatV1.11B39,2013-08-25 23:38:00,
2013-08-25 19:43:00,72.3,57.2,30.02,WSW,241,0.0,0.0,59,0.00,,,0.00,WeatherCatV1.11B39,2013-08-25 23:43:00,
2013-08-25 19:48:00,71.7,57.5,30.01,WSW,241,0.0,0.0,61,0.00,,,0.00,WeatherCatV1.11B39,2013-08-25 23:48:00,
2013-08-25 19:53:00,71.6,56.0,30.01,WSW,241,0.0,0.0,58,0.00,,,0.00,WeatherCatV1.11B39,2013-08-25 23:53:00,
2013-08-25 19:58:00,71.6,55.5,30.02,WSW,241,0.0,0.0,57,0.00,,,0.00,WeatherCatV1.11B39,2013-08-25 23:58:00,
2013-08-25 20:03:00,71.3,58.0,30.01,WSW,241,0.0,0.0,63,0.00,,,0.00,WeatherCatV1.11B39,2013-08-26 00:03:00,
2013-08-25 20:08:00,70.5,58.2,30.01,WSW,241,0.0,0.0,65,0.00,,,0.00,WeatherCatV1.11B39,2013-08-26 00:08:00,
2013-08-25 20:13:00,69.9,58.4,30.01,WSW,241,0.0,0.0,67,0.00,,,0.00,WeatherCatV1.11B39,2013-08-26 00:13:00,
2013-08-25 20:18:00,69.6,59.0,30.01,WSW,241,0.0,0.0,69,0.00,,,0.00,WeatherCatV1.11B39,2013-08-26 00:18:00,
2013-08-25 20:23:00,69.3,59.5,30.02,WSW,241,0.0,0.0,71,0.00,,,0.00,WeatherCatV1.11B39,2013-08-26 00:23:00,
2013-08-25 20:28:00,68.7,58.9,30.02,WSW,241,0.0,0.0,71,0.00,,,0.00,WeatherCatV1.11B39,2013-08-26 00:28:00,
2013-08-25 20:33:00,68.3,58.5,30.02,WSW,241,0.0,0.0,71,0.00,,,0.00,WeatherCatV1.11B39,2013-08-26 00:33:00,
2013-08-25 20:38:00,68.2,58.4,30.02,WSW,241,0.0,0.0,71,0.00,,,0.00,WeatherCatV1.11B39,2013-08-26 00:38:00,
2013-08-25 20:43:00,68.4,58.6,30.02,WSW,240,0.0,0.0,71,0.00,,,0.00,WeatherCatV1.11B39,2013-08-26 00:43:00,
2013-08-25 20:48:00,68.4,59.0,30.02,WSW,240,0.0,0.0,72,0.00,,,0.00,WeatherCatV1.11B39,2013-08-26 00:48:00,
2013-08-25 20:53:00,68.2,59.2,30.02,WSW,240,0.0,0.0,73,0.00,,,0.00,WeatherCatV1.11B39,2013-08-26 00:53:00,
2013-08-25 20:58:00,68.3,58.9,30.02,WSW,240,0.0,0.0,72,0.00,,,0.00,WeatherCatV1.11B39,2013-08-26 00:58:00,
2013-08-25 21:03:00,68.2,57.6,30.02,WSW,240,0.0,0.0,69,0.00,,,0.00,WeatherCatV1.11B39,2013-08-26 01:03:00,
2013-08-25 21:08:00,68.2,57.6,30.02,WSW,240,0.0,0.0,69,0.00,,,0.00,WeatherCatV1.11B39,2013-08-26 01:08:00,
2013-08-25 21:13:00,68.1,56.3,30.02,WSW,240,0.0,0.0,66,0.00,,,0.00,WeatherCatV1.11B39,2013-08-26 01:13:00,
2013-08-25 21:18:00,68.1,55.9,30.02,WSW,240,0.0,0.0,65,0.00,,,0.00,WeatherCatV1.11B39,2013-08-26 01:18:00,
2013-08-25 21:23:00,68.2,55.1,30.01,WSW,240,0.0,0.0,63,0.00,,,0.00,WeatherCatV1.11B39,2013-08-26 01:23:00,
2013-08-25 21:28:00,68.4,55.3,30.02,WSW,240,0.0,0.0,63,0.00,,,0.00,WeatherCatV1.11B39,2013-08-26 01:28:00,
2013-08-25 21:33:00,68.6,55.0,30.02,WSW,240,0.0,0.0,62,0.00,,,0.00,WeatherCatV1.11B39,2013-08-26 01:33:00,
2013-08-25 21:38:00,68.7,57.3,30.01,WSW,240,0.0,0.0,67,0.00,,,0.00,WeatherCatV1.11B39,2013-08-26 01:38:00,
2013-08-25 21:43:00,68.2,57.2,30.01,WSW,240,0.0,0.0,68,0.00,,,0.00,WeatherCatV1.11B39,2013-08-26 01:43:00,
2013-08-25 21:48:00,67.8,55.6,30.01,WSW,240,0.0,0.0,65,0.00,,,0.00,WeatherCatV1.11B39,2013-08-26 01:48:00,
2013-08-25 21:53:00,67.6,55.4,30.01,WSW,240,0.0,0.0,65,0.00,,,0.00,WeatherCatV1.11B39,2013-08-26 01:53:00,
2013-08-25 21:58:00,67.6,55.4,30.00,WSW,240,0.0,0.0,65,0.00,,,0.00,WeatherCatV1.11B39,2013-08-26 01:58:00,
2013-08-25 22:03:00,67.6,55.4,30.00,WSW,240,0.0,0.0,65,0.00,,,0.00,WeatherCatV1.11B39,2013-08-26 02:03:00,
2013-08-25 22:08:00,67.6,55.0,30.00,WSW,240,0.0,0.0,64,0.00,,,0.00,WeatherCatV1.11B39,2013-08-26 02:08:00,
2013-08-25 22:13:00,67.7,55.1,30.00,WSW,240,0.0,0.0,64,0.00,,,0.00,WeatherCatV1.11B39,2013-08-26 02:13:00,
2013-08-25 22:18:00,67.8,55.2,30.00,SW,233,0.0,3.0,64,0.00,,,0.00,WeatherCatV1.11B39,2013-08-26 02:18:00,
2013-08-25 22:23:00,67.7,55.1,30.01,WSW,251,0.0,3.0,64,0.00,,,0.00,WeatherCatV1.11B39,2013-08-26 02:23:00,
2013-08-25 22:28:00,67.8,54.7,30.00,WSW,249,0.0,0.0,63,0.00,,,0.00,WeatherCatV1.11B39,2013-08-26 02:28:00,
2013-08-25 22:33:00,67.8,54.7,30.01,WSW,249,0.0,0.0,63,0.00,,,0.00,WeatherCatV1.11B39,2013-08-26 02:33:00,
2013-08-25 22:38:00,67.8,54.7,30.01,WSW,248,0.0,0.0,63,0.00,,,0.00,WeatherCatV1.11B39,2013-08-26 02:38:00,
2013-08-25 22:43:00,67.8,56.4,30.01,WSW,248,0.0,0.0,67,0.00,,,0.00,WeatherCatV1.11B39,2013-08-26 02:43:00,
2013-08-25 22:48:00,67.4,55.2,30.01,WSW,248,0.0,0.0,65,0.00,,,0.00,WeatherCatV1.11B39,2013-08-26 02:48:00,
2013-08-25 22:53:00,66.9,55.2,30.01,WSW,249,0.0,0.0,66,0.00,,,0.00,WeatherCatV1.11B39,2013-08-26 02:53:00,
2013-08-25 22:58:00,66.6,55.3,30.01,WSW,248,0.0,0.0,67,0.00,,,0.00,WeatherCatV1.11B39,2013-08-26 02:58:00,
2013-08-25 23:03:00,66.4,55.9,30.00,WSW,248,0.0,0.0,69,0.00,,,0.00,WeatherCatV1.11B39,2013-08-26 03:03:00,
2013-08-25 23:08:00,66.1,56.4,30.01,WSW,248,0.0,0.0,71,0.00,,,0.00,WeatherCatV1.11B39,2013-08-26 03:08:00,
2013-08-25 23:13:00,65.6,55.9,30.00,WSW,248,0.0,0.0,71,0.00,,,0.00,WeatherCatV1.11B39,2013-08-26 03:13:00,
2013-08-25 23:18:00,65.1,55.5,30.01,WSW,248,0.0,0.0,71,0.00,,,0.00,WeatherCatV1.11B39,2013-08-26 03:18:00,
2013-08-25 23:23:00,64.7,55.1,30.01,WSW,248,0.0,0.0,71,0.00,,,0.00,WeatherCatV1.11B39,2013-08-26 03:23:00,
2013-08-25 23:28:00,64.5,54.9,30.01,WSW,248,0.0,0.0,71,0.00,,,0.00,WeatherCatV1.11B39,2013-08-26 03:28:00,
2013-08-25 23:33:00,64.5,54.9,30.00,WSW,248,0.0,0.0,71,0.00,,,0.00,WeatherCatV1.11B39,2013-08-26 03:33:00,
2013-08-25 23:38:00,64.5,54.9,30.00,WSW,250,0.0,0.0,71,0.00,,,0.00,WeatherCatV1.11B39,2013-08-26 03:38:00,
2013-08-25 23:43:00,64.7,55.1,30.00,WSW,249,0.0,0.0,71,0.00,,,0.00,WeatherCatV1.11B39,2013-08-26 03:43:00,
2013-08-25 23:48:00,64.8,54.8,30.00,WSW,248,0.0,0.0,70,0.00,,,0.00,WeatherCatV1.11B39,2013-08-26 03:48:00,
2013-08-25 23:53:00,65.1,54.7,30.00,WSW,249,0.0,0.0,69,0.00,,,0.00,WeatherCatV1.11B39,2013-08-26 03:53:00,
2013-08-25 23:58:00,65.3,54.9,30.00,WSW,248,0.0,0.0,69,0.00,,,0.00,WeatherCatV1.11B39,2013-08-26 03:58:00,